Time,TemperatureF,DewpointF,PressureIn,WindDirection,WindDirectionDegrees,WindSpeedMPH,WindSpeedGustMPH,Humidity,HourlyPrecipIn,Conditions,Clouds,dailyrainin,SoftwareType,DateUTC
2013-04-13 00:00:00,58.7,42.1,29.85,WNW,301,3.0,9.0,54,0.00,RA,,0.00,WeatherDisplay:10.37,2013-04-13 04:00:00,
2013-04-13 00:15:00,58.2,42.1,29.85,WNW,302,1.0,12.0,55,0.00,CLR,,0.00,WeatherDisplay:10.37,2013-04-13 04:15:00,
2013-04-13 00:30:00,57.6,42.0,29.86,WNW,294,1.0,9.0,56,0.00,CLR,,0.00,WeatherDisplay:10.37,2013-04-13 04:30:00,
2013-04-13 00:45:00,57.2,42.1,29.86,WNW,301,1.0,6.0,57,0.00,CLR,,0.00,WeatherDisplay:10.37,2013-04-13 04:45:00,
2013-04-13 01:00:00,56.6,42.0,29.87,NW,307,1.0,5.0,58,0.00,CLR,,0.00,WeatherDisplay:10.37,2013-04-13 05:00:00,
2013-04-13 01:15:00,55.9,41.7,29.87,NW,307,0.0,2.0,59,0.00,CLR,,0.00,WeatherDisplay:10.37,2013-04-13 05:15:00,
2013-04-13 01:30:00,54.6,41.8,29.88,NW,307,0.0,1.0,62,0.00,CLR,,0.00,WeatherDisplay:10.37,2013-04-13 05:30:00,
2013-04-13 01:45:00,53.9,41.2,29.88,NNW,334,1.0,8.0,62,0.00,CLR,,0.00,WeatherDisplay:10.37,2013-04-13 05:45:00,
2013-04-13 02:00:00,54.4,39.9,29.88,NW,320,5.0,8.0,58,0.00,CLR,,0.00,WeatherDisplay:10.37,2013-04-13 06:00:00,
2013-04-13 02:15:00,55.0,39.6,29.89,NNW,328,1.0,8.0,56,0.00,CLR,,0.00,WeatherDisplay:10.37,2013-04-13 06:15:00,
2013-04-13 02:30:00,54.6,38.7,29.89,NW,307,2.0,6.0,55,0.00,CLR,,0.00,WeatherDisplay:10.37,2013-04-13 06:30:00,
2013-04-13 02:45:00,54.2,38.4,29.90,NNW,332,2.0,7.0,55,0.00,CLR,,0.00,WeatherDisplay:10.37,2013-04-13 06:45:00,
2013-04-13 03:00:00,53.9,38.1,29.90,NW,326,0.0,5.0,55,0.00,CLR,,0.00,WeatherDisplay:10.37,2013-04-13 07:00:00,
2013-04-13 03:15:00,53.2,37.9,29.90,NW,326,1.0,4.0,56,0.00,CLR,,0.00,WeatherDisplay:10.37,2013-04-13 07:15:00,
2013-04-13 03:30:00,52.3,37.5,29.91,NNW,329,0.0,5.0,57,0.00,CLR,,0.00,WeatherDisplay:10.37,2013-04-13 07:30:00,
2013-04-13 03:45:00,52.2,37.4,29.91,North,349,5.0,8.0,57,0.00,CLR,,0.00,WeatherDisplay:10.37,2013-04-13 07:45:00,
2013-04-13 04:00:00,52.8,37.5,29.91,NW,315,2.0,7.0,56,0.00,CLR,,0.00,WeatherDisplay:10.37,2013-04-13 08:00:00,
2013-04-13 04:15:00,52.6,37.3,29.91,NNW,329,1.0,6.0,56,0.00,CLR,,0.00,WeatherDisplay:10.37,2013-04-13 08:15:00,
2013-04-13 04:30:00,52.3,36.6,29.92,North,356,1.0,5.0,55,0.00,CLR,,0.00,WeatherDisplay:10.37,2013-04-13 08:30:00,
2013-04-13 04:45:00,52.0,36.8,29.92,North,0,0.0,4.0,56,0.00,CLR,,0.00,WeatherDisplay:10.37,2013-04-13 08:45:00,
2013-04-13 05:00:00,51.1,37.3,29.93,North,0,0.0,1.0,59,0.00,CLR,,0.00,WeatherDisplay:10.37,2013-04-13 09:00:00,
2013-04-13 05:15:00,49.5,34.9,29.93,North,0,0.0,1.0,57,0.00,CLR,,0.00,WeatherDisplay:10.37,2013-04-13 09:15:00,
2013-04-13 05:30:00,47.8,36.2,29.92,North,0,0.0,1.0,64,0.00,CLR,,0.00,WeatherDisplay:10.37,2013-04-13 09:30:00,
2013-04-13 05:45:00,46.7,36.7,29.93,North,0,0.0,1.0,68,0.00,CLR,,0.00,WeatherDisplay:10.37,2013-04-13 09:45:00,
2013-04-13 06:00:00,45.7,36.8,29.93,North,0,0.0,1.0,71,0.00,CLR,,0.00,WeatherDisplay:10.37,2013-04-13 10:00:00,
2013-04-13 06:15:00,44.9,36.4,29.94,North,0,0.0,0.0,72,0.00,CLR,,0.00,WeatherDisplay:10.37,2013-04-13 10:15:00,
2013-04-13 06:30:00,44.2,36.4,29.95,North,0,0.0,0.0,74,0.00,CLR,,0.00,WeatherDisplay:10.37,2013-04-13 10:30:00,
2013-04-13 06:45:00,43.6,35.9,29.95,North,0,0.0,0.0,74,0.00,CLR,,0.00,WeatherDisplay:10.37,2013-04-13 10:45:00,
2013-04-13 07:00:00,43.1,36.0,29.96,North,0,0.0,0.0,76,0.00,CLR,,0.00,WeatherDisplay:10.37,2013-04-13 11:00:00,
2013-04-13 07:15:00,42.7,36.3,29.97,North,0,0.0,0.0,78,0.00,CLR,,0.00,WeatherDisplay:10.37,2013-04-13 11:15:00,
2013-04-13 07:30:00,42.6,37.2,29.97,North,0,0.0,1.0,81,0.00,CLR,,0.00,WeatherDisplay:10.37,2013-04-13 11:30:00,
2013-04-13 07:45:00,42.9,37.8,29.98,North,0,0.0,1.0,82,0.00,CLR,,0.00,WeatherDisplay:10.37,2013-04-13 11:45:00,
2013-04-13 08:00:00,43.8,39.3,29.99,North,0,0.0,0.0,84,0.00,CLR,,0.00,WeatherDisplay:10.37,2013-04-13 12:00:00,
2013-04-13 08:15:00,46.3,41.7,29.99,North,0,0.0,0.0,84,0.00,CLR,,0.00,WeatherDisplay:10.37,2013-04-13 12:15:00,
2013-04-13 08:30:00,51.0,43.0,29.99,North,0,0.0,0.0,74,0.00,CLR,,0.00,WeatherDisplay:10.37,2013-04-13 12:30:00,
2013-04-13 08:45:00,55.1,43.5,29.99,North,0,1.0,4.0,65,0.00,CLR,,0.00,WeatherDisplay:10.37,2013-04-13 12:45:00,
2013-04-13 09:00:00,57.1,42.9,29.99,NNE,16,1.0,5.0,59,0.00,CLR,,0.00,WeatherDisplay:10.37,2013-04-13 13:00:00,
2013-04-13 09:15:00,58.4,40.8,29.99,NNE,27,1.0,6.0,52,0.00,CLR,,0.00,WeatherDisplay:10.37,2013-04-13 13:15:00,
2013-04-13 09:31:00,59.6,42.4,30.00,North,357,3.0,6.0,53,0.00,CLR,,0.00,WeatherDisplay:10.37,2013-04-13 13:31:00,
2013-04-13 09:45:00,59.9,41.2,30.00,NW,321,2.0,12.0,50,0.00,CLR,,0.00,WeatherDisplay:10.37,2013-04-13 13:45:00,
2013-04-13 10:00:00,60.3,41.0,30.00,NW,322,5.0,10.0,49,0.00,CLR,,0.00,WeatherDisplay:10.37,2013-04-13 14:00:00,
2013-04-13 10:15:00,60.7,40.9,30.00,NW,313,3.0,9.0,48,0.00,CLR,,0.00,WeatherDisplay:10.37,2013-04-13 14:15:00,
2013-04-13 10:30:00,61.4,41.5,30.01,NW,318,0.0,8.0,48,0.00,CLR,,0.00,WeatherDisplay:10.37,2013-04-13 14:30:00,
2013-04-13 10:45:00,62.0,41.0,30.01,West,261,1.0,7.0,46,0.00,CLR,,0.00,WeatherDisplay:10.37,2013-04-13 14:45:00,
2013-04-13 11:00:00,63.1,44.2,30.01,West,275,2.0,7.0,50,0.00,CLR,,0.00,WeatherDisplay:10.37,2013-04-13 15:00:00,
2013-04-13 11:15:00,63.4,43.4,30.01,WSW,250,5.0,9.0,48,0.00,CLR,,0.00,WeatherDisplay:10.37,2013-04-13 15:15:00,
2013-04-13 11:45:00,63.7,41.9,30.01,WNW,287,3.0,10.0,45,0.00,CLR,,0.00,WeatherDisplay:10.37,2013-04-13 15:45:00,
2013-04-13 12:00:00,65.2,41.5,30.01,West,266,3.0,12.0,42,0.00,CLR,,0.00,WeatherDisplay:10.37,2013-04-13 16:00:00,
2013-04-13 12:15:00,64.8,42.9,30.01,WSW,256,7.0,14.0,45,0.00,CLR,,0.00,WeatherDisplay:10.37,2013-04-13 16:15:00,
2013-04-13 12:30:00,65.9,43.4,30.01,WNW,290,3.0,10.0,44,0.00,CLR,,0.00,WeatherDisplay:10.37,2013-04-13 16:30:00,
2013-04-13 12:45:00,66.0,43.4,30.01,WSW,254,9.0,13.0,44,0.00,CLR,,0.00,WeatherDisplay:10.37,2013-04-13 16:45:00,
2013-04-13 13:01:00,66.4,45.5,30.00,WNW,299,1.0,12.0,47,0.00,CLR,,0.00,WeatherDisplay:10.37,2013-04-13 17:01:00,
2013-04-13 13:15:00,67.3,44.0,30.00,WSW,238,2.0,12.0,43,0.00,CLR,,0.00,WeatherDisplay:10.37,2013-04-13 17:15:00,
2013-04-13 13:30:00,68.2,44.2,29.99,SW,232,5.0,13.0,42,0.00,CLR,,0.00,WeatherDisplay:10.37,2013-04-13 17:30:00,
2013-04-13 13:45:00,68.2,42.3,29.98,West,263,6.0,12.0,39,0.00,CLR,,0.00,WeatherDisplay:10.37,2013-04-13 17:45:00,
2013-04-13 14:00:00,69.2,43.8,29.98,SW,234,6.0,13.0,40,0.00,CLR,,0.00,WeatherDisplay:10.37,2013-04-13 18:00:00,
2013-04-13 14:15:00,69.2,45.1,29.98,NW,310,3.0,10.0,42,0.00,CLR,,0.00,WeatherDisplay:10.37,2013-04-13 18:15:00,
2013-04-13 14:30:00,70.2,42.7,29.97,SW,229,5.0,14.0,37,0.00,CLR,,0.00,WeatherDisplay:10.37,2013-04-13 18:30:00,
2013-04-13 14:45:00,71.0,42.7,29.97,WSW,256,2.0,12.0,36,0.00,CLR,,0.00,WeatherDisplay:10.37,2013-04-13 18:45:00,
2013-04-13 15:00:00,70.6,43.0,29.97,West,259,8.0,14.0,37,0.00,CLR,,0.00,WeatherDisplay:10.37,2013-04-13 19:00:00,
2013-04-13 15:15:00,70.6,43.8,29.96,West,263,7.0,17.0,38,0.00,CLR,,0.00,WeatherDisplay:10.37,2013-04-13 19:15:00,
2013-04-13 15:30:00,71.1,42.8,29.96,West,269,5.0,12.0,36,0.00,CLR,,0.00,WeatherDisplay:10.37,2013-04-13 19:30:00,
2013-04-13 15:45:00,71.8,41.9,29.95,WSW,254,3.0,10.0,34,0.00,CLR,,0.00,WeatherDisplay:10.37,2013-04-13 19:45:00,
2013-04-13 16:00:00,72.2,44.5,29.94,SSW,194,3.0,10.0,37,0.00,CLR,,0.00,WeatherDisplay:10.37,2013-04-13 20:00:00,
2013-04-13 16:15:00,72.0,41.3,29.94,WNW,287,3.0,13.0,33,0.00,CLR,,0.00,WeatherDisplay:10.37,2013-04-13 20:15:00,
2013-04-13 16:30:00,72.9,42.1,29.93,SW,221,5.0,12.0,33,0.00,CLR,,0.00,WeatherDisplay:10.37,2013-04-13 20:30:00,
2013-04-13 16:45:00,73.6,42.7,29.93,SW,236,1.0,10.0,33,0.00,CLR,,0.00,WeatherDisplay:10.37,2013-04-13 20:45:00,
2013-04-13 17:00:00,72.6,41.8,29.93,WNW,301,1.0,9.0,33,0.00,CLR,,0.00,WeatherDisplay:10.37,2013-04-13 21:00:00,
2013-04-13 17:15:00,72.7,41.1,29.93,SW,236,5.0,12.0,32,0.00,CLR,,0.00,WeatherDisplay:10.37,2013-04-13 21:15:00,
2013-04-13 17:30:00,72.8,40.4,29.93,West,280,5.0,15.0,31,0.00,CLR,,0.00,WeatherDisplay:10.37,2013-04-13 21:30:00,
2013-04-13 17:45:00,72.6,41.8,29.93,West,268,2.0,12.0,33,0.00,CLR,,0.00,WeatherDisplay:10.37,2013-04-13 21:45:00,
2013-04-13 18:00:00,73.0,37.0,29.93,WSW,246,1.0,17.0,27,0.00,CLR,,0.00,WeatherDisplay:10.37,2013-04-13 22:00:00,
2013-04-13 18:15:00,72.8,35.9,29.93,WNW,293,3.0,13.0,26,0.00,CLR,,0.00,WeatherDisplay:10.37,2013-04-13 22:15:00,
2013-04-13 18:30:00,72.6,35.7,29.94,NW,309,2.0,10.0,26,0.00,CLR,,0.00,WeatherDisplay:10.37,2013-04-13 22:30:00,
2013-04-13 18:45:00,72.1,36.3,29.94,WNW,303,5.0,12.0,27,0.00,CLR,,0.00,WeatherDisplay:10.37,2013-04-13 22:45:00,
2013-04-13 19:00:00,71.5,35.7,29.94,WNW,293,3.0,9.0,27,0.00,CLR,,0.00,WeatherDisplay:10.37,2013-04-13 23:00:00,
2013-04-13 19:15:00,71.0,36.2,29.95,WSW,240,2.0,12.0,28,0.00,CLR,,0.00,WeatherDisplay:10.37,2013-04-13 23:15:00,
2013-04-13 19:30:00,69.9,35.3,29.95,WSW,242,1.0,8.0,28,0.00,CLR,,0.00,WeatherDisplay:10.37,2013-04-13 23:30:00,
2013-04-13 19:45:00,69.1,35.5,29.96,NW,310,0.0,6.0,29,0.00,CLR,,0.00,WeatherDisplay:10.37,2013-04-13 23:45:00,
2013-04-13 20:00:00,67.6,35.9,29.97,NW,311,0.0,2.0,31,0.00,CLR,,0.00,WeatherDisplay:10.37,2013-04-14 00:00:00,
2013-04-13 20:15:00,65.6,35.7,29.97,NW,311,0.0,2.0,33,0.00,CLR,,0.00,WeatherDisplay:10.37,2013-04-14 00:15:00,
2013-04-13 20:30:00,63.6,36.1,29.98,NW,311,0.0,2.0,36,0.00,CLR,,0.00,WeatherDisplay:10.37,2013-04-14 00:30:00,
2013-04-13 20:45:00,61.7,36.5,29.99,NW,311,0.0,1.0,39,0.00,CLR,,0.00,WeatherDisplay:10.37,2013-04-14 00:45:00,
2013-04-13 21:00:00,60.1,35.7,29.99,NW,311,0.0,0.0,40,0.00,CLR,,0.00,WeatherDisplay:10.37,2013-04-14 01:00:00,
2013-04-13 21:15:00,58.8,36.9,30.00,NW,311,0.0,0.0,44,0.00,CLR,,0.00,WeatherDisplay:10.37,2013-04-14 01:15:00,
2013-04-13 21:30:00,57.6,37.0,30.01,NW,311,0.0,0.0,46,0.00,CLR,,0.00,WeatherDisplay:10.37,2013-04-14 01:30:00,
2013-04-13 21:45:00,56.6,34.3,30.02,NW,311,0.0,1.0,43,0.00,CLR,,0.00,WeatherDisplay:10.37,2013-04-14 01:45:00,
2013-04-13 22:00:00,56.1,33.9,30.03,NW,311,0.0,2.0,43,0.00,CLR,,0.00,WeatherDisplay:10.37,2013-04-14 02:00:00,
2013-04-13 22:15:00,56.1,37.2,30.03,NW,311,0.0,1.0,49,0.00,CLR,,0.00,WeatherDisplay:10.37,2013-04-14 02:15:00,
2013-04-13 22:30:00,55.3,36.4,30.04,NW,311,0.0,0.0,49,0.00,CLR,,0.00,WeatherDisplay:10.37,2013-04-14 02:30:00,
2013-04-13 22:45:00,54.4,38.1,30.04,NW,311,0.0,2.0,54,0.00,CLR,,0.00,WeatherDisplay:10.37,2013-04-14 02:45:00,
2013-04-13 23:00:00,53.6,37.3,30.05,NW,311,0.0,3.0,54,0.00,CLR,,0.00,WeatherDisplay:10.37,2013-04-14 03:00:00,
2013-04-13 23:15:00,53.1,35.9,30.05,NW,311,1.0,2.0,52,0.00,CLR,,0.00,WeatherDisplay:10.37,2013-04-14 03:15:00,
2013-04-13 23:30:00,53.2,39.2,30.05,NW,310,0.0,4.0,59,0.00,CLR,,0.00,WeatherDisplay:10.37,2013-04-14 03:30:00,
2013-04-13 23:45:00,52.3,38.8,30.05,NW,310,0.0,1.0,60,0.00,CLR,,0.00,WeatherDisplay:10.37,2013-04-14 03:45:00,